CW5532 Weather Reports


time (UTC)temp
C
wind
direction
speed
KPH
gust
KPH
rain 1hr
cm
rain 24hr
cm
rain mn
cm
humidity
%
barometer
mb
20260502160235 18 97 8.0 16.1 0.00 0.05 0.05 57 1018.1
20260502123234 18 103 1.6 16.1 0.00 0.05 0.05 61 1020.1
20260502120734 18 78 8.0 16.1 0.00 0.05 0.05 63 1020.4
20260502120234 17 80 3.2 16.1 0.00 0.05 0.05 65 1020.6
20260502103734 15 48 3.2 14.5 0.00 0.05 0.05 79 1021.4
20260502100234 14 65 0.0 0.0 0.00 0.05 0.05 81 1022.0
20260502090234 14 49 0.0 0.0 0.00 0.05 0.05 83 1022.0
20260502070733 13 252 0.0 0.0 0.00 0.03 0.03 85 1021.8
20260502060734 13 258 0.0 0.0 0.03 0.03 0.03 85 1021.7
20260502060233 13 258 0.0 0.0 0.03 0.03 0.03 85 1021.7
20260502050233 12 238 0.0 0.0 0.00 0.00 0.00 84 1021.3
20260502043733 12 235 0.0 0.0 0.00 0.00 0.00 84 1021.1
20260502040733 12 236 0.0 0.0 0.00 0.00 0.00 84 1021.1
20260502033734 12 246 0.0 0.0 0.00 0.00 0.00 83 1021.2
20260502033233 12 246 0.0 0.0 0.00 0.00 0.00 83 1021.2
20260502023734 13 121 0.0 0.0 0.00 0.00 0.00 83 1021.2
20260502020733 13 90 0.0 0.0 0.00 0.00 0.00 83 1021.4
20260502013233 12 90 0.0 0.0 0.00 0.00 0.00 83 1021.5
20260502010733 12 90 0.0 0.0 0.00 0.00 0.00 83 1021.6
20260502010233 12 90 0.0 0.0 0.00 0.00 0.00 83 1021.6
20260502003733 13 90 0.0 0.0 0.00 0.00 0.00 82 1021.8
20260502003233 13 90 0.0 0.0 0.00 0.00 0.00 82 1021.9
20260502000732 13 188 0.0 0.0 0.00 0.00 0.00 82 1022.3
20260501233733 13 188 0.0 0.0 0.00 0.00 0.00 81 1022.4
20260501233233 13 188 0.0 0.0 0.00 0.00 0.00 81 1022.3
20260501230732 13 238 0.0 0.0 0.00 0.00 0.00 81 1022.3
20260501230233 13 238 0.0 0.0 0.00 0.00 0.00 80 1022.4
20260501223733 13 138 0.0 0.0 0.00 0.00 0.00 79 1022.2
20260501223232 14 138 0.0 0.0 0.00 0.00 0.00 79 1022.3
20260501220733 14 138 0.0 0.0 0.00 0.00 0.00 79 1022.2
20260501210732 15 247 0.0 0.0 0.00 0.00 0.00 77 1022.1
20260501203732 15 190 0.0 0.0 0.00 0.00 0.00 77 1022.1
20260501200733 16 194 0.0 0.0 0.00 0.00 0.00 74 1021.7
20260501183732 18 99 0.0 0.0 0.00 0.00 0.00 66 1020.7
20260501183232 18 98 0.0 0.0 0.00 0.00 0.00 65 1020.7
20260501173732 18 93 0.0 0.0 0.00 0.00 0.00 62 1020.4
20260501163232 20 117 4.8 16.1 0.00 0.00 0.00 60 1020.1